| time (UTC) | temp F | wind direction | speed knots | gust knots | rain 1hr in | rain 24hr in | rain mn in | humidity % | barometer mb |
| 20260504050744 | 53 | 289 | 0.0 | 0.0 | 0.00 | 0.00 | 0.00 | 60 | 1004.6 |
| 20260504050242 | 53 | 289 | 0.0 | 0.0 | 0.00 | 0.00 | 0.00 | 60 | 1004.7 |
| 20260504045739 | 53 | 289 | 0.0 | 0.0 | 0.00 | 0.00 | 0.00 | 60 | 1004.8 |
| 20260504045239 | 53 | 289 | 0.0 | 0.0 | 0.00 | 0.00 | 0.00 | 59 | 1004.8 |
| 20260504044737 | 53 | 289 | 0.0 | 0.0 | 0.00 | 0.00 | 0.00 | 59 | 1004.7 |
| 20260504044234 | 53 | 289 | 0.0 | 0.0 | 0.00 | 0.00 | 0.00 | 59 | 1004.8 |
| 20260504043731 | 53 | 289 | 0.0 | 0.0 | 0.00 | 0.00 | 0.00 | 59 | 1004.8 |
| 20260504043228 | 53 | 289 | 0.0 | 0.0 | 0.00 | 0.00 | 0.00 | 59 | 1004.8 |
| 20260504042726 | 53 | 289 | 0.0 | 0.0 | 0.00 | 0.00 | 0.00 | 59 | 1004.6 |
| 20260504042222 | 54 | 289 | 0.0 | 0.0 | 0.00 | 0.00 | 0.00 | 59 | 1004.9 |
| 20260504041718 | 54 | 289 | 0.0 | 0.0 | 0.00 | 0.00 | 0.00 | 58 | 1004.8 |
| 20260504041214 | 54 | 289 | 0.0 | 0.0 | 0.00 | 0.00 | 0.00 | 58 | 1004.8 |
| 20260504040710 | 54 | 289 | 0.0 | 0.0 | 0.00 | 0.00 | 0.00 | 59 | 1004.8 |
| 20260504040208 | 54 | 289 | 0.0 | 0.0 | 0.00 | 0.00 | 0.00 | 58 | 1004.9 |
| 20260504035704 | 54 | 289 | 0.0 | 0.0 | 0.00 | 0.00 | 0.00 | 58 | 1005.0 |
| 20260504035202 | 54 | 289 | 0.0 | 0.0 | 0.00 | 0.00 | 0.00 | 58 | 1005.0 |
| 20260504034659 | 55 | 289 | 0.0 | 0.0 | 0.00 | 0.00 | 0.00 | 58 | 1005.0 |
| 20260504034155 | 55 | 289 | 0.0 | 0.0 | 0.00 | 0.00 | 0.00 | 58 | 1004.9 |
| 20260504033653 | 55 | 289 | 0.0 | 0.0 | 0.00 | 0.00 | 0.00 | 57 | 1004.9 |
| 20260504033150 | 55 | 289 | 0.0 | 0.0 | 0.00 | 0.00 | 0.00 | 58 | 1005.0 |
| 20260504032647 | 55 | 289 | 0.0 | 0.0 | 0.00 | 0.00 | 0.00 | 58 | 1004.8 |
| 20260504032145 | 55 | 289 | 0.0 | 0.0 | 0.00 | 0.00 | 0.00 | 58 | 1005.0 |
| 20260504031642 | 55 | 289 | 0.0 | 0.0 | 0.00 | 0.00 | 0.00 | 58 | 1005.0 |
| 20260504031138 | 55 | 289 | 0.0 | 0.0 | 0.00 | 0.00 | 0.00 | 57 | 1004.9 |
| 20260504030634 | 56 | 289 | 0.0 | 0.0 | 0.00 | 0.00 | 0.00 | 57 | 1004.9 |
| 20260504030131 | 56 | 289 | 0.0 | 0.0 | 0.00 | 0.00 | 0.00 | 57 | 1004.9 |
| 20260504025628 | 56 | 289 | 0.0 | 0.0 | 0.00 | 0.00 | 0.00 | 57 | 1005.0 |
| 20260504025125 | 56 | 289 | 0.0 | 0.0 | 0.00 | 0.00 | 0.00 | 57 | 1004.7 |
| 20260504024622 | 56 | 289 | 0.0 | 0.0 | 0.00 | 0.00 | 0.00 | 56 | 1004.8 |
| 20260504024119 | 56 | 289 | 0.0 | 0.0 | 0.00 | 0.00 | 0.00 | 57 | 1004.8 |
| 20260504023615 | 57 | 289 | 0.0 | 0.0 | 0.00 | 0.00 | 0.00 | 58 | 1004.8 |
| 20260504023111 | 57 | 289 | 0.0 | 0.0 | 0.00 | 0.00 | 0.00 | 57 | 1004.7 |
| 20260504022608 | 57 | 289 | 0.0 | 0.0 | 0.00 | 0.00 | 0.00 | 57 | 1004.8 |
| 20260504022104 | 58 | 289 | 0.0 | 0.0 | 0.00 | 0.00 | 0.00 | 56 | 1004.7 |
| 20260504021602 | 58 | 289 | 0.0 | 0.0 | 0.00 | 0.00 | 0.00 | 55 | 1004.6 |
| 20260504021058 | 58 | 289 | 0.0 | 0.0 | 0.00 | 0.00 | 0.00 | 54 | 1004.7 |
| 20260504020555 | 58 | 289 | 0.0 | 0.0 | 0.00 | 0.00 | 0.00 | 54 | 1004.4 |
| 20260504020051 | 58 | 289 | 0.0 | 0.0 | 0.00 | 0.00 | 0.00 | 54 | 1004.3 |
| 20260504015548 | 59 | 289 | 0.0 | 0.0 | 0.00 | 0.00 | 0.00 | 52 | 1004.4 |
| 20260504015044 | 59 | 289 | 0.0 | 0.0 | 0.00 | 0.00 | 0.00 | 51 | 1004.1 |
| 20260504014540 | 59 | 289 | 0.0 | 0.0 | 0.00 | 0.00 | 0.00 | 52 | 1004.3 |
| 20260504014038 | 60 | 289 | 0.0 | 0.0 | 0.00 | 0.00 | 0.00 | 52 | 1004.2 |
| 20260504013535 | 60 | 289 | 0.0 | 0.0 | 0.00 | 0.00 | 0.00 | 50 | 1004.2 |
| 20260504013032 | 60 | 289 | 0.0 | 0.0 | 0.00 | 0.00 | 0.00 | 49 | 1004.2 |
| 20260504012530 | 61 | 289 | 0.0 | 0.0 | 0.00 | 0.00 | 0.00 | 49 | 1004.1 |
| 20260504012027 | 62 | 289 | 0.0 | 0.0 | 0.00 | 0.00 | 0.00 | 47 | 1004.0 |
| 20260504011524 | 62 | 289 | 0.0 | 0.0 | 0.00 | 0.00 | 0.00 | 45 | 1004.1 |
| 20260504011020 | 63 | 289 | 0.0 | 0.0 | 0.00 | 0.00 | 0.00 | 44 | 1004.2 |
| 20260504010516 | 64 | 289 | 0.0 | 0.0 | 0.00 | 0.00 | 0.00 | 43 | 1004.4 |
| 20260504010012 | 64 | 289 | 0.0 | 0.0 | 0.00 | 0.00 | 0.00 | 42 | 1004.2 |
| 20260504005509 | 65 | 289 | 0.0 | 0.0 | 0.00 | 0.00 | 0.00 | 41 | 1004.1 |
| 20260504005006 | 66 | 289 | 0.0 | 0.0 | 0.00 | 0.00 | 0.00 | 39 | 1004.0 |
| 20260504004504 | 67 | 289 | 0.0 | 0.0 | 0.00 | 0.00 | 0.00 | 37 | 1003.9 |
| 20260504004000 | 67 | 289 | 0.0 | 0.0 | 0.00 | 0.00 | 0.00 | 36 | 1004.0 |
| 20260504003456 | 68 | 289 | 0.0 | 0.0 | 0.00 | 0.00 | 0.00 | 38 | 1003.9 |
| 20260504002954 | 68 | 289 | 0.0 | 0.0 | 0.00 | 0.00 | 0.00 | 37 | 1004.0 |
| 20260504002450 | 69 | 289 | 0.0 | 0.0 | 0.00 | 0.00 | 0.00 | 36 | 1004.0 |
| 20260504001948 | 69 | 289 | 0.0 | 0.0 | 0.00 | 0.00 | 0.00 | 34 | 1004.0 |
| 20260504001445 | 70 | 290 | 0.0 | 0.0 | 0.00 | 0.00 | 0.00 | 33 | 1003.8 |
| 20260504000942 | 70 | 289 | 0.9 | 0.9 | 0.00 | 0.00 | 0.00 | 32 | 1003.7 |
| 20260504000439 | 70 | 288 | 0.9 | 0.9 | 0.00 | 0.00 | 0.00 | 33 | 1003.7 |
| 20260503235936 | 70 | 326 | 1.7 | 1.7 | 0.00 | 0.00 | 0.00 | 32 | 1003.6 |
| 20260503235434 | 70 | 24 | 0.9 | 1.7 | 0.00 | 0.00 | 0.00 | 32 | 1003.7 |
| 20260503234931 | 71 | 156 | 0.9 | 1.7 | 0.00 | 0.00 | 0.00 | 33 | 1003.5 |
| 20260503234429 | 71 | 267 | 0.0 | 0.0 | 0.00 | 0.00 | 0.00 | 32 | 1003.7 |
| 20260503233927 | 71 | 331 | 1.7 | 1.7 | 0.00 | 0.00 | 0.00 | 32 | 1003.7 |
| 20260503233423 | 72 | 229 | 0.0 | 0.9 | 0.00 | 0.00 | 0.00 | 32 | 1003.6 |
| 20260503232919 | 72 | 291 | 0.9 | 0.9 | 0.00 | 0.00 | 0.00 | 32 | 1003.8 |
| 20260503232416 | 72 | 208 | 2.6 | 3.5 | 0.00 | 0.00 | 0.00 | 32 | 1003.6 |
| 20260503231914 | 71 | 239 | 3.5 | 3.5 | 0.00 | 0.00 | 0.00 | 32 | 1003.7 |
| 20260503231411 | 71 | 183 | 0.9 | 0.9 | 0.00 | 0.00 | 0.00 | 33 | 1003.8 |
| 20260503230907 | 72 | 119 | 0.9 | 1.7 | 0.00 | 0.00 | 0.00 | 33 | 1003.8 |
| 20260503230404 | 73 | 11 | 1.7 | 1.7 | 0.00 | 0.00 | 0.00 | 32 | 1003.9 |
| 20260503225902 | 73 | 28 | 1.7 | 1.7 | 0.00 | 0.00 | 0.00 | 31 | 1003.8 |
| 20260503225357 | 72 | 258 | 0.9 | 1.7 | 0.00 | 0.00 | 0.00 | 32 | 1003.9 |
| 20260503224854 | 72 | 337 | 2.6 | 2.6 | 0.00 | 0.00 | 0.00 | 32 | 1003.9 |
| 20260503224351 | 72 | 243 | 0.9 | 0.9 | 0.00 | 0.00 | 0.00 | 33 | 1004.0 |
| 20260503223849 | 72 | 280 | 1.7 | 2.6 | 0.00 | 0.00 | 0.00 | 33 | 1004.1 |
| 20260503223347 | 72 | 251 | 2.6 | 3.5 | 0.00 | 0.00 | 0.00 | 33 | 1004.0 |
| 20260503222842 | 72 | 40 | 1.7 | 2.6 | 0.00 | 0.00 | 0.00 | 33 | 1004.1 |
| 20260503222341 | 72 | 309 | 0.0 | 0.0 | 0.00 | 0.00 | 0.00 | 33 | 1004.0 |
| 20260503221838 | 72 | 336 | 1.7 | 1.7 | 0.00 | 0.00 | 0.00 | 33 | 1004.1 |
| 20260503221337 | 71 | 78 | 0.0 | 0.0 | 0.00 | 0.00 | 0.00 | 35 | 1004.0 |
| 20260503220832 | 71 | 131 | 0.9 | 0.9 | 0.00 | 0.00 | 0.00 | 35 | 1004.3 |
| 20260503220329 | 71 | 168 | 1.7 | 1.7 | 0.00 | 0.00 | 0.00 | 34 | 1004.1 |
| 20260503215826 | 71 | 336 | 0.0 | 1.7 | 0.00 | 0.00 | 0.00 | 35 | 1004.2 |
| 20260503215323 | 71 | 14 | 0.9 | 0.9 | 0.00 | 0.00 | 0.00 | 35 | 1004.1 |
| 20260503214821 | 71 | 308 | 0.9 | 1.7 | 0.00 | 0.00 | 0.00 | 35 | 1004.2 |
| 20260503214318 | 71 | 121 | 0.9 | 0.9 | 0.00 | 0.00 | 0.00 | 35 | 1004.3 |
| 20260503213816 | 70 | 233 | 0.9 | 1.7 | 0.00 | 0.00 | 0.00 | 35 | 1004.3 |
| 20260503213313 | 70 | 314 | 1.7 | 2.6 | 0.00 | 0.00 | 0.00 | 35 | 1004.1 |
| 20260503212810 | 70 | 302 | 1.7 | 1.7 | 0.00 | 0.00 | 0.00 | 34 | 1004.6 |
| 20260503212308 | 70 | 183 | 3.5 | 5.2 | 0.00 | 0.00 | 0.00 | 35 | 1004.4 |
| 20260503211805 | 70 | 261 | 1.7 | 1.7 | 0.00 | 0.00 | 0.00 | 36 | 1004.4 |
| 20260503211302 | 70 | 149 | 1.7 | 2.6 | 0.00 | 0.00 | 0.00 | 36 | 1004.4 |
| 20260503210801 | 70 | 124 | 0.9 | 1.7 | 0.00 | 0.00 | 0.00 | 36 | 1004.4 |
| 20260503210259 | 70 | 251 | 2.6 | 3.5 | 0.00 | 0.00 | 0.00 | 35 | 1004.5 |
| 20260503205754 | 70 | 179 | 3.5 | 7.0 | 0.00 | 0.00 | 0.00 | 35 | 1004.6 |
| 20260503205251 | 69 | 345 | 0.9 | 0.9 | 0.00 | 0.00 | 0.00 | 36 | 1004.5 |
| 20260503204747 | 69 | 310 | 3.5 | 5.2 | 0.00 | 0.00 | 0.00 | 36 | 1004.5 |
| 20260503204245 | 69 | 302 | 3.5 | 5.2 | 0.00 | 0.00 | 0.00 | 37 | 1004.8 |
| 20260503203742 | 69 | 309 | 3.5 | 3.5 | 0.00 | 0.00 | 0.00 | 36 | 1005.0 |
| 20260503203240 | 69 | 241 | 1.7 | 1.7 | 0.00 | 0.00 | 0.00 | 37 | 1004.8 |
| 20260503202737 | 69 | 300 | 1.7 | 2.6 | 0.00 | 0.00 | 0.00 | 36 | 1004.9 |
| 20260503202234 | 68 | 327 | 1.7 | 2.6 | 0.00 | 0.00 | 0.00 | 37 | 1005.1 |
| 20260503201732 | 69 | 310 | 4.3 | 7.8 | 0.00 | 0.00 | 0.00 | 35 | 1005.2 |
| 20260503201230 | 69 | 321 | 2.6 | 2.6 | 0.00 | 0.00 | 0.00 | 35 | 1005.2 |
| 20260503200726 | 70 | 160 | 3.5 | 6.1 | 0.00 | 0.00 | 0.00 | 35 | 1005.2 |
| 20260503200222 | 69 | 222 | 0.9 | 0.9 | 0.00 | 0.00 | 0.00 | 37 | 1005.2 |
| 20260503195719 | 69 | 169 | 1.7 | 2.6 | 0.00 | 0.00 | 0.00 | 36 | 1005.3 |
| 20260503195216 | 69 | 144 | 1.7 | 2.6 | 0.00 | 0.00 | 0.00 | 36 | 1005.5 |
| 20260503194713 | 70 | 251 | 1.7 | 2.6 | 0.00 | 0.00 | 0.00 | 35 | 1005.5 |
| 20260503194209 | 69 | 169 | 1.7 | 1.7 | 0.00 | 0.00 | 0.00 | 35 | 1005.5 |
| 20260503193705 | 69 | 151 | 4.3 | 7.8 | 0.00 | 0.00 | 0.00 | 36 | 1005.6 |
| 20260503193201 | 69 | 340 | 2.6 | 5.2 | 0.00 | 0.00 | 0.00 | 35 | 1005.7 |
| 20260503192657 | 69 | 14 | 1.7 | 2.6 | 0.00 | 0.00 | 0.00 | 36 | 1005.8 |
| 20260503192153 | 69 | 294 | 1.7 | 1.7 | 0.00 | 0.00 | 0.00 | 34 | 1006.0 |
| 20260503191649 | 68 | 17 | 0.9 | 0.9 | 0.00 | 0.00 | 0.00 | 36 | 1005.9 |
| 20260503191147 | 67 | 345 | 0.9 | 0.9 | 0.00 | 0.00 | 0.00 | 36 | 1006.0 |
| 20260503190643 | 67 | 333 | 2.6 | 2.6 | 0.00 | 0.00 | 0.00 | 35 | 1005.8 |
| 20260503190140 | 68 | 214 | 1.7 | 2.6 | 0.00 | 0.00 | 0.00 | 35 | 1006.0 |
| 20260503185637 | 68 | 277 | 0.9 | 1.7 | 0.00 | 0.00 | 0.00 | 36 | 1006.3 |
| 20260503185132 | 67 | 4 | 1.7 | 1.7 | 0.00 | 0.00 | 0.00 | 37 | 1006.2 |
| 20260503184627 | 67 | 217 | 3.5 | 3.5 | 0.00 | 0.00 | 0.00 | 36 | 1006.2 |
| 20260503184124 | 67 | 330 | 0.9 | 1.7 | 0.00 | 0.00 | 0.00 | 37 | 1006.3 |
| 20260503183621 | 67 | 163 | 0.9 | 0.9 | 0.00 | 0.00 | 0.00 | 38 | 1006.0 |
| 20260503183118 | 67 | 345 | 3.5 | 3.5 | 0.00 | 0.00 | 0.00 | 37 | 1006.5 |
| 20260503182617 | 67 | 308 | 2.6 | 3.5 | 0.00 | 0.00 | 0.00 | 36 | 1006.3 |
| 20260503182114 | 67 | 320 | 3.5 | 6.1 | 0.00 | 0.00 | 0.00 | 37 | 1006.3 |
| 20260503181611 | 67 | 94 | 4.3 | 6.1 | 0.00 | 0.00 | 0.00 | 36 | 1006.8 |
| 20260503181108 | 67 | 286 | 2.6 | 3.5 | 0.00 | 0.00 | 0.00 | 37 | 1006.5 |
| 20260503180605 | 67 | 175 | 3.5 | 5.2 | 0.00 | 0.00 | 0.00 | 38 | 1006.5 |
| 20260503180103 | 66 | 219 | 0.9 | 1.7 | 0.00 | 0.00 | 0.00 | 42 | 1006.5 |
| 20260503175559 | 66 | 7 | 2.6 | 3.5 | 0.00 | 0.00 | 0.00 | 41 | 1006.9 |
| 20260503175056 | 65 | 39 | 2.6 | 3.5 | 0.00 | 0.00 | 0.00 | 42 | 1006.8 |
| 20260503174553 | 64 | 290 | 2.6 | 3.5 | 0.00 | 0.00 | 0.00 | 41 | 1007.0 |
| 20260503174050 | 64 | 268 | 2.6 | 3.5 | 0.00 | 0.00 | 0.00 | 42 | 1007.3 |
| 20260503173545 | 64 | 349 | 2.6 | 2.6 | 0.00 | 0.00 | 0.00 | 42 | 1007.1 |
| 20260503173041 | 64 | 333 | 3.5 | 5.2 | 0.00 | 0.00 | 0.00 | 42 | 1007.2 |
| 20260503172539 | 63 | 204 | 4.3 | 6.1 | 0.00 | 0.00 | 0.00 | 42 | 1007.1 |
| 20260503172036 | 63 | 268 | 2.6 | 3.5 | 0.00 | 0.00 | 0.00 | 42 | 1007.1 |
| 20260503171532 | 64 | 109 | 4.3 | 7.0 | 0.00 | 0.00 | 0.00 | 40 | 1007.4 |
| 20260503171030 | 63 | 31 | 2.6 | 2.6 | 0.00 | 0.00 | 0.00 | 41 | 1007.4 |
| 20260503170526 | 63 | 309 | 2.6 | 3.5 | 0.00 | 0.00 | 0.00 | 41 | 1007.4 |
| 20260503150918 | 57 | 28 | 2.6 | 5.2 | 0.00 | 0.00 | 0.00 | 57 | 1008.8 |
| 20260503150415 | 57 | 272 | 1.7 | 1.7 | 0.00 | 0.00 | 0.00 | 57 | 1008.5 |
| 20260503131308 | 52 | 198 | 1.7 | 3.5 | 0.00 | 0.00 | 0.00 | 62 | 1010.4 |
| 20260503130806 | 51 | 51 | 1.7 | 2.6 | 0.00 | 0.00 | 0.00 | 63 | 1010.3 |
| 20260503130303 | 51 | 293 | 2.6 | 3.5 | 0.00 | 0.00 | 0.00 | 63 | 1010.5 |
| 20260503110657 | 49 | 189 | 2.6 | 3.5 | 0.00 | 0.00 | 0.00 | 50 | 1010.5 |
| 20260503110154 | 49 | 330 | 1.7 | 2.6 | 0.00 | 0.00 | 0.00 | 49 | 1010.7 |
| 20260503100120 | 50 | 106 | 0.0 | 0.0 | 0.00 | 0.00 | 0.00 | 48 | 1011.0 |
| 20260503081510 | 48 | 321 | 1.7 | 1.7 | 0.00 | 0.00 | 0.00 | 50 | 1011.8 |
| 20260503081007 | 48 | 112 | 0.9 | 0.9 | 0.00 | 0.00 | 0.00 | 50 | 1011.8 |
| 20260503080503 | 48 | 64 | 0.0 | 0.9 | 0.00 | 0.00 | 0.00 | 50 | 1011.8 |
| 20260503072939 | 48 | 103 | 0.9 | 0.9 | 0.00 | 0.00 | 0.00 | 49 | 1012.0 |
| 20260503072437 | 48 | 188 | 2.6 | 2.6 | 0.00 | 0.00 | 0.00 | 49 | 1012.0 |
| 20260503071934 | 47 | 53 | 0.9 | 0.9 | 0.00 | 0.00 | 0.00 | 49 | 1012.1 |
| 20260503071431 | 47 | 186 | 0.0 | 0.9 | 0.00 | 0.00 | 0.00 | 49 | 1012.2 |
| 20260503070926 | 47 | 188 | 1.7 | 2.6 | 0.00 | 0.00 | 0.00 | 49 | 1012.3 |
| 20260503070424 | 48 | 250 | 0.0 | 0.0 | 0.00 | 0.00 | 0.00 | 48 | 1012.4 |
| 20260503054838 | 49 | 125 | 0.0 | 0.0 | 0.00 | 0.00 | 0.00 | 45 | 1012.8 |
| 20260503054333 | 49 | 127 | 0.0 | 0.0 | 0.00 | 0.00 | 0.00 | 45 | 1012.9 |
| 20260503053832 | 49 | 200 | 1.7 | 2.6 | 0.00 | 0.00 | 0.00 | 45 | 1012.9 |
| 20260503053330 | 49 | 139 | 1.7 | 1.7 | 0.00 | 0.00 | 0.00 | 45 | 1012.9 |
| 20260503052826 | 49 | 23 | 0.0 | 0.9 | 0.00 | 0.00 | 0.00 | 45 | 1012.9 |